Run Hereford
12 May 2019

     
Click your name for detailed results

Page 1 of 8 (384 items)
PosBib NoNameTimeChip TimeCategoryCat PosGenderGen PosClubPace
11449Phillip MATTHEWS01:11:25.801:11:25.3Top 31Male1SWANSEA HARRIERS11.0 m/hr
21467Sage PEARCE-HIGGINS01:14:05.101:14:04.7Top 32Male210.6 m/hr
31498Ben TOYE01:14:15.601:14:15.1Top 33Male3GOSPORT ROAD RUNNERS10.6 m/hr
41371Jon BARNES01:15:20.901:15:20.3MSen1Male4CHELTENHAM & COUNTY HARRIERS10.4 m/hr
51231Mark LAMONBY01:17:23.501:17:22.4MSen2Male5CROFT AMBREY RUNNING CLUB10.2 m/hr
61502Richard WALSH01:20:35.401:20:34.7MSen3Male6WORCESTER ATHLETIC CLUB9.8 m/hr
71440Gareth LEEK01:21:06.801:21:05.3MSen4Male7CROFT AMBREY RUNNING CLUB9.7 m/hr
81269Rob NICHOLLS01:21:37.601:21:36.0MSen5Male8SPIRIT OF MONMOUTH9.6 m/hr
91537Dan WOOD01:23:22.901:23:21.8MSen6Male99.4 m/hr
101486Lee SIMMS01:23:56.601:23:28.4MSen7Male109.4 m/hr
111265Peter MORTON01:24:28.801:24:24.7MSen8Male119.3 m/hr
121544Steven FLOWERS01:24:45.001:24:44.2MSen9Male12WYE VALLEY RUNNERS9.3 m/hr
131499Andrew TYLER01:24:48.801:24:46.4V451Male13HEREFORD COURIERS 9.3 m/hr
141388Ross CAMERON01:26:04.901:26:02.7MSen10Male14HEREFORD COURIERS 9.1 m/hr
151442Chris LEWIS01:27:02.901:26:56.8MSen11Male159.0 m/hr
161561Toby MOORE01:28:42.101:28:37.0MSen12Male168.9 m/hr
171542Jake UNDERHILL01:28:49.501:28:46.9V401Male17HEREFORD COURIERS 8.8 m/hr
181340Harry WEAVER01:29:16.801:29:09.3MSen13Male188.8 m/hr
191346Steve WIGMORE01:29:19.201:29:11.8V551Male19HORSHAM JOGGERS8.8 m/hr
201501Andy WALCZAK01:29:29.701:29:06.5MSen14Male208.8 m/hr
211396Richard CRONIN01:29:32.201:29:27.5MSen15Male21FOREST OF DEAN AC8.8 m/hr
221484Christopher SHEARWOOD01:30:04.101:29:59.9V552Male22METROS RC8.7 m/hr
231225Mark JONES01:30:16.901:30:14.8MSen16Male238.7 m/hr
241446Gemma MALLETT01:31:22.101:31:18.9Top 31Female1CROFT AMBREY RUNNING CLUB8.6 m/hr
251419Will GORE01:31:28.201:30:56.1MSen17Male24CROFT AMBREY RUNNING CLUB8.6 m/hr
261447Mike MANSFIELD01:33:03.701:33:01.2V452Male25GLOUCESTER AC8.4 m/hr
271453George MILES01:33:07.601:33:03.9MSen18Male268.4 m/hr
281515Matt UNSWORTH01:33:11.101:33:07.1V453Male27SPIRIT OF MONMOUTH8.4 m/hr
291566Daniel PHILLIPS01:33:55.001:33:52.1MSen19Male288.4 m/hr
301474Chris PRIDDY01:33:56.701:33:48.9MSen20Male298.4 m/hr
311234Mark LANGFORD01:34:09.701:34:08.2MSen21Male308.3 m/hr
321131Jonny BUCKE01:34:10.601:33:47.9MSen22Male31SHREWSBURY ATHLETICS CLUB8.3 m/hr
331471Nick PREECE01:34:23.401:34:22.8V402Male32WYE VALLEY RUNNERS8.3 m/hr
341153Ian DAVIES01:34:28.001:34:25.2V454Male33CAERLEON RC8.3 m/hr
351540Ben SAMUELS01:34:35.401:34:32.6MSen23Male348.3 m/hr
361397John CROSS01:34:52.801:34:45.6V553Male358.3 m/hr
371223Adam JONES01:35:28.401:35:25.6MSen24Male36BRECON AC8.2 m/hr
381411Robert FORSTER01:35:36.901:35:06.2MSen25Male378.2 m/hr
391310Ben SKINNER01:35:53.301:35:45.1MSen26Male38HEREFORD COURIERS 8.2 m/hr
401421Rhys GRIFFITH01:36:17.801:36:12.0V554Male398.2 m/hr
411160Brian DYER01:36:31.301:36:15.0MSen27Male408.1 m/hr
421456James MORGAN01:36:51.401:36:45.5MSen28Male418.1 m/hr
431250Aaron MARFELL01:37:26.801:37:25.2MSen29Male428.1 m/hr
441565Stuart DAVIES01:37:29.701:37:16.4MSen30Male438.1 m/hr
451199Daniel HILL01:37:48.101:37:29.5V455Male448.0 m/hr
461271Philippe NOEL01:37:49.701:37:44.7MSen31Male458.0 m/hr
471410Lewis FITZGERALD01:38:27.101:38:03.1MSen32Male468.0 m/hr
481133Robert CATLEY01:38:32.201:38:05.8V403Male478.0 m/hr
491466Mark PARRY01:38:47.301:38:39.1V404Male48PONTYPOOL PHOENIX RUNNERS8.0 m/hr
501490Thomas STOKES01:39:02.901:38:40.1MSen33Male497.9 m/hr
Page 1 of 8 (384 items)
   

fb